Fayetteville, NC

10:01 AM EDT on August 27, 2016 (GMT -0400)
Fayetteville Regional-Grannis

Weather History for KFAY - July, 2012

Change the Weather History Date:

Tuesday, July 3, 2012

  Actual Average Record
Temperature  
Mean Temperature 84 °F 81 °F  
Max Temperature 96 °F 91 °F 100 °F (1954)
Min Temperature 71 °F 71 °F 54 °F (1932)
Degree Days  
Heating Degree Days 0 0  
Month to date heating degree days 0 0  
Since 1 June heating degree days 0 0  
Since 1 July heating degree days 0 0  
Cooling Degree Days 19 16  
Month to date cooling degree days 59 48  
Year to date cooling degree days 801 728  
Since 1 June cooling degree days 380 444  
Growing Degree Days 33 (Base 50)    
Moisture  
Dew Point 71 °F    
Average Humidity 72    
Maximum Humidity 100    
Minimum Humidity 43    
Precipitation  
Precipitation 0.00 in 0.16 in 2.52 in (1931)
Month to date precipitation 0.86 0.48  
Year to date precipitation 20.09 20.50  
Sea Level Pressure  
Sea Level Pressure 29.95 in    
Wind  
Wind Speed 4 mph (SW)    
Max Wind Speed 15 mph    
Max Gust Speed 20 mph    
Visibility 10 miles    
Events Thunderstorm    
T = Trace of Precipitation, MM = Missing Value Source: NWS Daily Summary

Daily Weather History Graph

Daily Weather History Graph

Search for Another Location

Airport or City:

Trip Planner

Search our weather history database for the weather conditions in past years. The results will help you decide how hot, cold, wet, or windy it might be!

Date:

Astronomy

Jul. 03, 2012 Rise Set
Actual Time 6:06 AM EDT 8:33 PM EDT
Civil Twilight 5:36 AM EDT 9:02 PM EDT
Nautical Twilight 5:00 AM EDT 9:39 PM EDT
Astronomical Twilight 4:20 AM EDT 10:19 PM EDT
Moon 8:29 PM EDT (7/3) 5:55 AM EDT (7/3)
Length of Visible Light 15h 25m
Length of Day
14h 26m
Full, 100% of the Moon is Illuminated
Jul 3
Full
Jul 3
Full
Jul 10
Last Quarter
Jul 19
New
Jul 26
First Quarter

Hourly Weather History & Observations

Time (EDT) Temp. Heat Index Dew Point Humidity Pressure Visibility Wind Dir Wind Speed Gust Speed Precip Events Conditions
12:53 AM 77.0 °F - 72.0 °F 84% 29.97 in 10.0 mi SW 3.5 mph - N/A   Clear
1:53 AM 75.0 °F - 71.1 °F 87% 29.97 in 9.0 mi South 5.8 mph - N/A   Clear
2:53 AM 73.0 °F - 71.1 °F 93% 29.96 in 9.0 mi Calm Calm - N/A   Clear
3:53 AM 73.0 °F - 71.1 °F 93% 29.94 in 9.0 mi South 3.5 mph - N/A   Clear
4:53 AM 71.1 °F - 71.1 °F 100% 29.94 in 8.0 mi South 3.5 mph - N/A   Clear
5:53 AM 71.1 °F - 70.0 °F 96% 29.95 in 8.0 mi SSW 3.5 mph - N/A   Clear
6:53 AM 72.0 °F - 71.1 °F 97% 29.97 in 6.0 mi SSW 3.5 mph - N/A   Clear
7:53 AM 75.9 °F - 72.0 °F 87% 29.98 in 9.0 mi SW 3.5 mph - N/A   Clear
8:53 AM 82.9 °F 88.0 °F 72.0 °F 69% 29.98 in 10.0 mi Calm Calm - N/A   Clear
9:53 AM 86.0 °F 91.5 °F 71.1 °F 61% 29.99 in 10.0 mi Calm Calm - N/A   Clear
10:53 AM 89.1 °F 95.0 °F 71.1 °F 55% 29.98 in 10.0 mi Calm Calm - N/A   Clear
11:53 AM 91.0 °F 95.6 °F 69.1 °F 48% 29.98 in 10.0 mi Calm Calm - N/A   Clear
1:53 PM 95.0 °F 101.3 °F 70.0 °F 44% 29.95 in 10.0 mi SSW 9.2 mph - N/A   Clear
2:53 PM 95.0 °F 102.5 °F 71.1 °F 46% 29.93 in 10.0 mi SW 9.2 mph - N/A   Partly Cloudy
3:53 PM 93.0 °F 100.1 °F 71.1 °F 49% 29.93 in 10.0 mi West 12.7 mph - N/A   Partly Cloudy
4:53 PM 93.0 °F 97.9 °F 69.1 °F 45% 29.92 in 10.0 mi SSW 6.9 mph - N/A   Clear
5:37 PM 91.4 °F 98.4 °F 71.6 °F 52% 29.91 in 10.0 mi SSW 3.5 mph - N/A Thunderstorm Clear
5:53 PM 91.0 °F 99.3 °F 73.0 °F 55% 29.90 in 10.0 mi West 9.2 mph - N/A   Clear
6:53 PM 88.0 °F 95.6 °F 73.0 °F 61% 29.90 in 10.0 mi Calm Calm - N/A   Clear
7:53 PM 86.0 °F 88.8 °F 66.9 °F 53% 29.91 in 10.0 mi West 6.9 mph - N/A   Clear
8:53 PM 84.0 °F 88.4 °F 70.0 °F 63% 29.92 in 10.0 mi SSW 3.5 mph - N/A   Clear
9:53 PM 82.9 °F 88.0 °F 72.0 °F 69% 29.95 in 10.0 mi Calm Calm - N/A   Clear
10:53 PM 82.9 °F 87.5 °F 71.1 °F 67% 29.95 in 10.0 mi SW 3.5 mph - N/A   Partly Cloudy
11:53 PM 82.0 °F 86.3 °F 71.1 °F 69% 29.94 in 10.0 mi South 4.6 mph - N/A   Clear